Weather History for State College, PA

Change the Weather History Date:

Saturday, October 22, 2011

  Actual Average Record
Temperature  
Mean Temperature 46 °F -  
Max Temperature 50 °F 58 °F 81 °F (1979)
Min Temperature 39 °F 38 °F 22 °F (1940)
Degree Days  
Heating Degree Days 20    
Moisture  
Dew Point 40 °F    
Average Humidity 82    
Maximum Humidity 93    
Minimum Humidity 62    
Precipitation  
Precipitation 0.00 in - - ()
Sea Level Pressure  
Sea Level Pressure 30.08 in    
Wind  
Wind Speed 4 mph (WSW)    
Max Wind Speed 8 mph    
Max Gust Speed -    
Visibility 10 miles    
Events      
Averages and records for this station are not official NWS values.
T = Trace of Precipitation, MM = Missing Value Source: NWS Daily Summary

Daily Weather History Graph

Daily Weather History Graph

Search for Another Location

Airport:

Trip Planner

Search our weather history database for the weather conditions in past years. The results will help you decide how hot, cold, wet, or windy it might be!

Date:

Astronomy

Oct. 22, 2011 Rise Set
Actual Time 7:30 AM EDT 6:20 PM EDT
Civil Twilight 7:02 AM EDT 6:48 PM EDT
Nautical Twilight 6:30 AM EDT 7:20 PM EDT
Astronomical Twilight 5:58 AM EDT 7:52 PM EDT
Moon 2:23 AM EDT (10/22) 3:39 PM EDT (10/22)
Length of Visible Light 11h 46m
Length of Day
10h 50m
Waning Crescent, 24% of the Moon is Illuminated
Oct 22
Waning Crescent
Oct 26
New
Nov 2
First Quarter
Nov 10
Full
Nov 18
Last Quarter

Hourly Weather History & Observations

Time (EDT) Temp. Windchill Dew Point Humidity Pressure Visibility Wind Dir Wind Speed Gust Speed Precip Events Conditions
12:15 AM 42.8 °F 40.1 °F 41.0 °F 93% 30.06 in 10.0 mi SW 4.6 mph - N/A   Overcast
12:35 AM 42.8 °F 40.1 °F 39.2 °F 87% 30.06 in 10.0 mi SW 4.6 mph - N/A   Overcast
12:55 AM 42.8 °F 39.3 °F 41.0 °F 93% 30.06 in 10.0 mi WSW 5.8 mph - N/A   Overcast
1:15 AM 44.6 °F 41.4 °F 39.2 °F 81% 30.07 in 10.0 mi West 5.8 mph - N/A   Overcast
1:35 AM 44.6 °F 42.2 °F 39.2 °F 81% 30.07 in 10.0 mi West 4.6 mph - N/A   Overcast
1:55 AM 44.6 °F 43.1 °F 41.0 °F 87% 30.07 in 10.0 mi SW 3.5 mph - N/A   Overcast
2:15 AM 44.6 °F 42.2 °F 41.0 °F 87% 30.06 in 10.0 mi West 4.6 mph - N/A   Overcast
2:35 AM 44.6 °F 40.2 °F 41.0 °F 87% 30.06 in 10.0 mi WSW 8.1 mph - N/A   Overcast
3:15 AM 44.6 °F 42.2 °F 39.2 °F 81% 30.07 in 10.0 mi West 4.6 mph - N/A   Overcast
3:35 AM 44.6 °F 42.2 °F 41.0 °F 87% 30.06 in 10.0 mi WSW 4.6 mph - N/A   Overcast
3:55 AM 44.6 °F 40.2 °F 41.0 °F 87% 30.06 in 10.0 mi WSW 8.1 mph - N/A   Overcast
4:15 AM 44.6 °F 41.4 °F 41.0 °F 87% 30.06 in 10.0 mi West 5.8 mph - N/A   Overcast
4:35 AM 44.6 °F - 41.0 °F 87% 30.07 in 10.0 mi Calm Calm - N/A   Overcast
4:55 AM 44.6 °F 42.2 °F 41.0 °F 87% 30.07 in 10.0 mi West 4.6 mph - N/A   Overcast
5:15 AM 44.6 °F 41.4 °F 41.0 °F 87% 30.07 in 10.0 mi WSW 5.8 mph - N/A   Overcast
5:35 AM 44.6 °F 42.2 °F 41.0 °F 87% 30.07 in 10.0 mi WSW 4.6 mph - N/A   Overcast
5:53 AM 44.6 °F 42.2 °F 41.0 °F 87% 30.07 in 10.0 mi West 4.6 mph - N/A   Overcast
5:55 AM 44.6 °F 42.2 °F 41.0 °F 87% 30.08 in 10.0 mi West 4.6 mph - N/A   Overcast
7:53 AM 44.6 °F 41.4 °F 39.2 °F 81% 30.09 in 10.0 mi West 5.8 mph - N/A   Overcast
8:53 AM 44.6 °F 42.2 °F 41.0 °F 87% 30.11 in 10.0 mi WSW 4.6 mph - N/A   Overcast
9:53 AM 46.4 °F 45.2 °F 41.0 °F 81% 30.11 in 10.0 mi SW 3.5 mph - N/A   Overcast
10:53 AM 46.4 °F 44.3 °F 39.2 °F 76% 30.11 in 10.0 mi West 4.6 mph - N/A   Overcast
11:53 AM 46.4 °F 42.9 °F 39.2 °F 76% 30.11 in 10.0 mi WSW 6.9 mph - N/A   Overcast
12:53 PM 48.2 °F - 39.2 °F 71% 30.10 in 10.0 mi West 5.8 mph - N/A   Overcast
2:53 PM 50.0 °F - 37.4 °F 62% 30.07 in 10.0 mi West 3.5 mph - N/A   Overcast
3:53 PM 50.0 °F - 39.2 °F 66% 30.07 in 10.0 mi WSW 5.8 mph - N/A   Overcast
4:53 PM 50.0 °F - 37.4 °F 62% 30.06 in 10.0 mi Calm Calm - N/A   Overcast
5:53 PM 50.0 °F - 39.2 °F 66% 30.07 in 10.0 mi Calm Calm - N/A   Overcast
6:50 PM 48.2 °F - 39.2 °F 71% 30.08 in 10.0 mi Calm Calm - N/A   Overcast
7:53 PM 46.4 °F - 39.2 °F 76% 30.09 in 10.0 mi Calm Calm - N/A   Overcast
8:53 PM 46.4 °F - 39.2 °F 76% 30.09 in 10.0 mi Calm Calm - N/A   Mostly Cloudy
10:15 PM 42.8 °F 40.1 °F 39.2 °F 87% 30.10 in 10.0 mi NW 4.6 mph - N/A   Scattered Clouds
10:35 PM 41.0 °F - 37.4 °F 87% 30.10 in 10.0 mi Calm Calm - N/A   Clear
10:55 PM 41.0 °F - 37.4 °F 87% 30.10 in 10.0 mi Calm Calm - N/A   Clear
11:15 PM 41.0 °F - 39.2 °F 93% 30.10 in 10.0 mi Calm Calm - N/A   Scattered Clouds
11:35 PM 41.0 °F 39.0 °F 39.2 °F 93% 30.10 in 10.0 mi WNW 3.5 mph - N/A   Clear
11:55 PM 39.2 °F - 37.4 °F 93% 30.09 in 10.0 mi Calm Calm - N/A   Clear